N1930G NTTB-NTAA

Flight info

Callsign N1930G
Flight time 0h 48m
Altitude 21000
Route RU3A RU J26 IDUTA DCT KARNO DCT OVINI
Aircraft STAR/L-SDFGRWY/S

Departure

Time 2026-04-26 22:05
Airport Bora Bora Airport (NTTB)

Arrival

Time 2026-04-26 22:54
Airport Fa'a'ā International Airport (NTAA)
Time Latitude Longitude Altitude Speed Heading
2026-04-26 21:39 -16.44553 -151.75454 10 ft 0 kts 173°
2026-04-26 22:00 -16.44537 -151.75455 10 ft 2 kts 190°
2026-04-26 22:00 -16.44522 -151.75449 10 ft 2 kts 184°
2026-04-26 22:00 -16.44508 -151.75450 10 ft 1 kts 151°
2026-04-26 22:01 -16.44508 -151.75451 10 ft 0 kts 148°
2026-04-26 22:02 -16.44531 -151.75415 10 ft 15 kts 109°
2026-04-26 22:02 -16.44498 -151.75351 10 ft 18 kts 34°
2026-04-26 22:02 -16.44421 -151.75294 12 ft 0 kts 35°
2026-04-26 22:02 -16.44419 -151.75292 12 ft 4 kts 35°
2026-04-26 22:03 -16.44349 -151.75271 13 ft 17 kts 338°
2026-04-26 22:03 -16.44258 -151.75399 15 ft 25 kts 302°
2026-04-26 22:03 -16.44151 -151.75561 17 ft 26 kts 304°
2026-04-26 22:03 -16.44072 -151.75661 19 ft 12 kts 335°
2026-04-26 22:04 -16.44057 -151.75703 18 ft 6 kts 156°
2026-04-26 22:04 -16.44066 -151.75689 19 ft 0 kts 126°
2026-04-26 22:05 -16.44135 -151.75586 17 ft 43 kts 124°
2026-04-26 22:05 -16.44407 -151.75176 12 ft 95 kts 124°
2026-04-26 22:05 -16.44847 -151.74494 229 ft 128 kts 120°
2026-04-26 22:05 -16.45347 -151.73619 700 ft 149 kts 116°
2026-04-26 22:06 -16.45859 -151.72677 1404 ft 148 kts 120°
2026-04-26 22:06 -16.46400 -151.71812 2444 ft 138 kts 123°
2026-04-26 22:06 -16.46788 -151.71300 3111 ft 136 kts 127°
2026-04-26 22:06 -16.47426 -151.70511 3831 ft 146 kts 128°
2026-04-26 22:07 -16.48273 -151.69401 4812 ft 149 kts 121°
2026-04-26 22:07 -16.48866 -151.68461 5340 ft 167 kts 120°
2026-04-26 22:07 -16.49318 -151.67739 5596 ft 184 kts 123°
2026-04-26 22:07 -16.50415 -151.66960 6039 ft 206 kts 162°
2026-04-26 22:08 -16.51875 -151.66921 6680 ft 209 kts 186°
2026-04-26 22:08 -16.53305 -151.67137 7376 ft 208 kts 189°
2026-04-26 22:08 -16.54728 -151.67449 8009 ft 210 kts 201°
2026-04-26 22:08 -16.55843 -151.68356 8657 ft 208 kts 238°
2026-04-26 22:09 -16.56376 -151.69734 9353 ft 205 kts 257°
2026-04-26 22:09 -16.56728 -151.71170 10033 ft 204 kts 260°
2026-04-26 22:09 -16.57036 -151.72618 10675 ft 205 kts 261°
2026-04-26 22:09 -16.57360 -151.74065 11342 ft 205 kts 256°
2026-04-26 22:10 -16.57793 -151.75488 12013 ft 206 kts 253°
2026-04-26 22:10 -16.58200 -151.76919 12715 ft 206 kts 255°
2026-04-26 22:10 -16.58587 -151.78356 13423 ft 206 kts 254°
2026-04-26 22:10 -16.59030 -151.79781 14084 ft 206 kts 243°
2026-04-26 22:11 -16.60026 -151.80825 14704 ft 206 kts 206°
2026-04-26 22:11 -16.61413 -151.81071 15348 ft 205 kts 176°
2026-04-26 22:11 -16.62829 -151.80895 16039 ft 204 kts 171°
2026-04-26 22:11 -16.64225 -151.80650 16740 ft 203 kts 169°
2026-04-26 22:12 -16.65623 -151.80386 17409 ft 205 kts 170°
2026-04-26 22:12 -16.67038 -151.80231 18138 ft 203 kts 175°
2026-04-26 22:12 -16.68434 -151.80098 18756 ft 203 kts 174°
2026-04-26 22:12 -16.69838 -151.79918 19390 ft 202 kts 174°
2026-04-26 22:13 -16.71238 -151.79763 20005 ft 202 kts 175°
2026-04-26 22:13 -16.72656 -151.79557 20465 ft 213 kts 163°
2026-04-26 22:13 -16.73921 -151.78654 20695 ft 234 kts 132°
2026-04-26 22:13 -16.74912 -151.77212 20810 ft 255 kts 125°
2026-04-26 22:14 -16.75888 -151.75595 20865 ft 271 kts 123°
2026-04-26 22:14 -16.76897 -151.73872 20887 ft 283 kts 125°
2026-04-26 22:14 -16.78075 -151.72182 20907 ft 292 kts 129°
2026-04-26 22:14 -16.79262 -151.70429 20914 ft 299 kts 126°
2026-04-26 22:15 -16.80438 -151.68658 20912 ft 303 kts 127°
2026-04-26 22:15 -16.81674 -151.66852 20915 ft 307 kts 127°
2026-04-26 22:15 -16.82901 -151.65017 20916 ft 309 kts 127°
2026-04-26 22:15 -16.84147 -151.63176 20927 ft 311 kts 127°
2026-04-26 22:16 -16.85397 -151.61327 20924 ft 312 kts 126°
2026-04-26 22:16 -16.86646 -151.59467 20925 ft 313 kts 127°
2026-04-26 22:16 -16.87904 -151.57605 20925 ft 314 kts 127°
2026-04-26 22:16 -16.89165 -151.55734 20922 ft 314 kts 127°
2026-04-26 22:17 -16.90424 -151.53864 20923 ft 315 kts 126°
2026-04-26 22:17 -16.91682 -151.51996 20923 ft 315 kts 127°
2026-04-26 22:17 -16.92929 -151.50144 20922 ft 315 kts 127°
2026-04-26 22:17 -16.94193 -151.48269 20931 ft 315 kts 127°
2026-04-26 22:18 -16.95454 -151.46393 20930 ft 315 kts 127°
2026-04-26 22:18 -16.96716 -151.44521 20930 ft 316 kts 127°
2026-04-26 22:18 -16.97979 -151.42639 20930 ft 316 kts 127°
2026-04-26 22:18 -16.99244 -151.40760 20930 ft 316 kts 127°
2026-04-26 22:19 -17.00509 -151.38882 20930 ft 316 kts 127°
2026-04-26 22:19 -17.01771 -151.36999 20930 ft 316 kts 126°
2026-04-26 22:19 -17.03035 -151.35118 20930 ft 316 kts 127°
2026-04-26 22:19 -17.04298 -151.33239 20933 ft 316 kts 127°
2026-04-26 22:20 -17.05564 -151.31358 20933 ft 316 kts 127°
2026-04-26 22:20 -17.06827 -151.29474 20933 ft 316 kts 126°
2026-04-26 22:20 -17.08076 -151.27611 20933 ft 316 kts 126°
2026-04-26 22:20 -17.09338 -151.25733 20933 ft 316 kts 127°
2026-04-26 22:21 -17.10601 -151.23851 20933 ft 316 kts 126°
2026-04-26 22:21 -17.11862 -151.21969 20933 ft 316 kts 126°
2026-04-26 22:21 -17.13125 -151.20086 20933 ft 316 kts 127°
2026-04-26 22:21 -17.14386 -151.18205 20933 ft 316 kts 127°
2026-04-26 22:22 -17.15647 -151.16325 20933 ft 316 kts 127°
2026-04-26 22:22 -17.16910 -151.14439 20933 ft 316 kts 126°
2026-04-26 22:22 -17.18171 -151.12555 20933 ft 316 kts 127°
2026-04-26 22:22 -17.19432 -151.10672 20934 ft 316 kts 127°
2026-04-26 22:23 -17.20693 -151.08785 20934 ft 317 kts 127°
2026-04-26 22:23 -17.21959 -151.06899 20933 ft 317 kts 127°
2026-04-26 22:23 -17.23223 -151.05006 20933 ft 317 kts 126°
2026-04-26 22:23 -17.24490 -151.03112 20934 ft 317 kts 127°
2026-04-26 22:24 -17.25741 -151.01243 20934 ft 317 kts 127°
2026-04-26 22:24 -17.27004 -150.99352 20934 ft 317 kts 126°
2026-04-26 22:24 -17.28269 -150.97460 20933 ft 317 kts 126°
2026-04-26 22:24 -17.29533 -150.95567 20933 ft 317 kts 126°
2026-04-26 22:25 -17.30797 -150.93674 20933 ft 317 kts 127°
2026-04-26 22:25 -17.32061 -150.91783 20933 ft 317 kts 127°
2026-04-26 22:25 -17.33321 -150.89894 20934 ft 317 kts 126°
2026-04-26 22:25 -17.34584 -150.88001 20933 ft 317 kts 126°
2026-04-26 22:26 -17.35848 -150.86107 20928 ft 317 kts 127°
2026-04-26 22:26 -17.37110 -150.84215 20928 ft 317 kts 126°
2026-04-26 22:26 -17.38373 -150.82322 20927 ft 317 kts 126°
2026-04-26 22:26 -17.39633 -150.80431 20928 ft 317 kts 126°
2026-04-26 22:27 -17.40895 -150.78537 20931 ft 317 kts 126°
2026-04-26 22:27 -17.42155 -150.76646 20930 ft 317 kts 126°
2026-04-26 22:27 -17.43401 -150.74775 20933 ft 317 kts 126°
2026-04-26 22:27 -17.44663 -150.72881 20934 ft 317 kts 126°
2026-04-26 22:28 -17.45925 -150.70983 20933 ft 317 kts 126°
2026-04-26 22:28 -17.47189 -150.69085 20933 ft 317 kts 126°
2026-04-26 22:28 -17.48451 -150.67188 20933 ft 318 kts 126°
2026-04-26 22:28 -17.49715 -150.65288 20933 ft 318 kts 126°
2026-04-26 22:29 -17.50979 -150.63387 20933 ft 318 kts 126°
2026-04-26 22:29 -17.52243 -150.61486 20933 ft 318 kts 126°
2026-04-26 22:29 -17.53507 -150.59584 20933 ft 318 kts 126°
2026-04-26 22:29 -17.54771 -150.57682 20933 ft 318 kts 126°
2026-04-26 22:30 -17.56033 -150.55780 20935 ft 318 kts 126°
2026-04-26 22:30 -17.57301 -150.53872 20800 ft 322 kts 126°
2026-04-26 22:30 -17.58595 -150.51923 20436 ft 331 kts 126°
2026-04-26 22:30 -17.59914 -150.49935 20055 ft 337 kts 126°
2026-04-26 22:31 -17.61146 -150.47850 19847 ft 337 kts 114°
2026-04-26 22:31 -17.61674 -150.45469 19669 ft 337 kts 96°
2026-04-26 22:31 -17.61580 -150.43024 19500 ft 336 kts 84°
2026-04-26 22:31 -17.61277 -150.40599 19344 ft 334 kts 84°
2026-04-26 22:32 -17.61109 -150.38175 19190 ft 333 kts 88°
2026-04-26 22:32 -17.60910 -150.35758 19009 ft 332 kts 85°
2026-04-26 22:32 -17.60709 -150.33348 18833 ft 331 kts 86°
2026-04-26 22:32 -17.60528 -150.30949 18670 ft 330 kts 86°
2026-04-26 22:33 -17.60324 -150.28555 18504 ft 329 kts 86°
2026-04-26 22:33 -17.59944 -150.23801 18077 ft 326 kts 86°
2026-04-26 22:33 -17.59752 -150.21435 17849 ft 325 kts 86°
2026-04-26 22:34 -17.59562 -150.19076 17630 ft 324 kts 86°
2026-04-26 22:34 -17.59372 -150.16749 17416 ft 323 kts 86°
2026-04-26 22:34 -17.59182 -150.14409 17221 ft 321 kts 86°
2026-04-26 22:34 -17.58992 -150.12083 17013 ft 320 kts 86°
2026-04-26 22:35 -17.58802 -150.09759 16801 ft 319 kts 86°
2026-04-26 22:35 -17.58613 -150.07440 16602 ft 318 kts 85°
2026-04-26 22:35 -17.58424 -150.05132 16349 ft 316 kts 85°
2026-04-26 22:35 -17.58236 -150.02843 15972 ft 314 kts 85°
2026-04-26 22:36 -17.58049 -150.00566 15606 ft 313 kts 85°
2026-04-26 22:36 -17.57863 -149.98299 15253 ft 311 kts 85°
2026-04-26 22:36 -17.57685 -149.96049 14902 ft 309 kts 88°
2026-04-26 22:36 -17.58014 -149.93845 14517 ft 307 kts 111°
2026-04-26 22:37 -17.59142 -149.91982 13990 ft 303 kts 135°
2026-04-26 22:37 -17.60852 -149.90775 13348 ft 301 kts 157°
2026-04-26 22:37 -17.62853 -149.90187 12658 ft 299 kts 170°
2026-04-26 22:37 -17.64906 -149.89854 12042 ft 298 kts 172°
2026-04-26 22:38 -17.66933 -149.89435 11430 ft 296 kts 167°
2026-04-26 22:38 -17.68949 -149.88991 10849 ft 295 kts 169°
2026-04-26 22:38 -17.70966 -149.88589 10236 ft 293 kts 167°
2026-04-26 22:38 -17.72809 -149.87732 9520 ft 290 kts 142°
2026-04-26 22:39 -17.74119 -149.86168 8835 ft 284 kts 116°
2026-04-26 22:39 -17.74648 -149.84220 8191 ft 276 kts 91°
2026-04-26 22:39 -17.74308 -149.82294 7641 ft 264 kts 64°
2026-04-26 22:39 -17.73260 -149.80786 7232 ft 251 kts 45°
2026-04-26 22:40 -17.72026 -149.79466 6871 ft 256 kts 44°
2026-04-26 22:40 -17.70738 -149.78148 6459 ft 261 kts 43°
2026-04-26 22:40 -17.69391 -149.76867 6075 ft 261 kts 41°
2026-04-26 22:40 -17.68035 -149.75605 5710 ft 261 kts 42°
2026-04-26 22:41 -17.66728 -149.74296 5427 ft 258 kts 44°
2026-04-26 22:41 -17.65489 -149.72954 5233 ft 253 kts 46°
2026-04-26 22:41 -17.64314 -149.71626 5110 ft 248 kts 47°
2026-04-26 22:41 -17.63158 -149.70308 5021 ft 244 kts 47°
2026-04-26 22:42 -17.62046 -149.68992 5004 ft 238 kts 49°
2026-04-26 22:42 -17.60986 -149.67672 5003 ft 235 kts 49°
2026-04-26 22:42 -17.59884 -149.66356 5003 ft 244 kts 47°
2026-04-26 22:42 -17.58736 -149.65015 5003 ft 250 kts 47°
2026-04-26 22:43 -17.57588 -149.63624 5014 ft 253 kts 49°
2026-04-26 22:43 -17.56452 -149.62204 5013 ft 255 kts 50°
2026-04-26 22:43 -17.55315 -149.60767 5017 ft 257 kts 50°
2026-04-26 22:43 -17.54182 -149.59341 5012 ft 253 kts 50°
2026-04-26 22:44 -17.53062 -149.57928 5012 ft 252 kts 51°
2026-04-26 22:44 -17.52007 -149.56485 5015 ft 254 kts 53°
2026-04-26 22:44 -17.50964 -149.54986 5012 ft 254 kts 54°
2026-04-26 22:44 -17.49935 -149.53478 5012 ft 254 kts 54°
2026-04-26 22:45 -17.48905 -149.51959 4773 ft 255 kts 54°
2026-04-26 22:45 -17.47877 -149.50448 4490 ft 254 kts 54°
2026-04-26 22:45 -17.46842 -149.48938 4194 ft 255 kts 54°
2026-04-26 22:45 -17.45806 -149.47439 3970 ft 253 kts 54°
2026-04-26 22:46 -17.44773 -149.45956 3748 ft 251 kts 54°
2026-04-26 22:46 -17.43743 -149.44486 3498 ft 250 kts 54°
2026-04-26 22:46 -17.42713 -149.43022 3266 ft 244 kts 54°
2026-04-26 22:46 -17.41737 -149.41639 2880 ft 227 kts 54°
2026-04-26 22:47 -17.40830 -149.40364 2640 ft 210 kts 54°
2026-04-26 22:47 -17.39980 -149.39184 2397 ft 197 kts 54°
2026-04-26 22:47 -17.39427 -149.37969 2199 ft 183 kts 84°
2026-04-26 22:47 -17.39727 -149.36738 2109 ft 180 kts 124°
2026-04-26 22:48 -17.40789 -149.35987 2058 ft 195 kts 162°
2026-04-26 22:48 -17.42190 -149.36079 2039 ft 217 kts 198°
2026-04-26 22:48 -17.43442 -149.37071 2025 ft 233 kts 231°
2026-04-26 22:48 -17.44300 -149.38500 2015 ft 231 kts 240°
2026-04-26 22:49 -17.45055 -149.39977 2012 ft 229 kts 243°
2026-04-26 22:49 -17.45695 -149.41492 2011 ft 226 kts 247°
2026-04-26 22:49 -17.46277 -149.43012 2012 ft 223 kts 248°
2026-04-26 22:49 -17.46832 -149.44518 2012 ft 221 kts 249°
2026-04-26 22:50 -17.47374 -149.46015 2014 ft 218 kts 249°
2026-04-26 22:50 -17.47906 -149.47498 2014 ft 217 kts 249°
2026-04-26 22:50 -17.48429 -149.48981 2012 ft 217 kts 249°
2026-04-26 22:50 -17.48942 -149.50438 2011 ft 215 kts 249°
2026-04-26 22:51 -17.49451 -149.51876 2021 ft 204 kts 247°
2026-04-26 22:51 -17.50046 -149.53160 1864 ft 182 kts 238°
2026-04-26 22:51 -17.50766 -149.54215 1605 ft 173 kts 229°
2026-04-26 22:51 -17.51521 -149.55175 1207 ft 169 kts 229°
2026-04-26 22:52 -17.52212 -149.56145 919 ft 162 kts 231°
2026-04-26 22:52 -17.52840 -149.57059 696 ft 145 kts 233°
2026-04-26 22:52 -17.53204 -149.57612 512 ft 133 kts 232°
2026-04-26 22:52 -17.53738 -149.58360 304 ft 125 kts 233°
2026-04-26 22:53 -17.54218 -149.59067 140 ft 113 kts 233°
2026-04-26 22:53 -17.54672 -149.59721 9 ft 106 kts 234°
2026-04-26 22:53 -17.55062 -149.60288 3 ft 88 kts 234°
2026-04-26 22:53 -17.55400 -149.60776 6 ft 76 kts 234°
2026-04-26 22:54 -17.55584 -149.61045 5 ft 26 kts 233°
2026-04-26 22:54 -17.55591 -149.61201 4 ft 29 kts 325°
2026-04-26 22:54 -17.55526 -149.61304 4 ft 17 kts 233°
2026-04-26 22:54 -17.55555 -149.61358 4 ft 0 kts 250°